{"data":{"norad_id":60272,"epoch":"2026-09-21T07:05:49.819200Z","epoch_age_seconds":112995,"freshness":"FRESH","line1":"1 60272U 24131T   26264.29571550 -.00000392  00000+0 -47003-6 0  9997","line2":"2 60272  53.1590 221.9561 0001324  88.9872 271.1282 15.34387200121695","mean_motion":15.343872,"eccentricity":0.0001324,"inclination_deg":53.159,"raan_deg":221.9561,"arg_perigee_deg":88.9872,"mean_anomaly_deg":271.1282,"bstar":-4.7003e-7,"rev_number":12169,"period_min":93.848540968016,"perigee_km":461.83555248415,"apogee_km":463.64701705396,"semimajor_km":6840.8782847691,"source":"CELESTRAK","updated_at":"2026-09-22T09:00:49.189792Z"}}